When you browse on this site, cookies collect data to enhance your experience and personalize the content and advertising you see.
Visit our Privacy Policy to learn more. By continuing to use the site, you agree to this use of cookies and data.
  • In Hungary
  • List of Countries
  • For 7 days
  • Water Temperature
  • Satellite Maps
  • Weather Map
  • News
  • Weather Widgets
  • user-avatar
    Login

    Hourly Weather Iglino

    Today, 17 January, Thursday

    Time Temperature Precipitation Wind Pressure Humidity
    00:00 -5°C° 0 mm 5 mps 745 mmHg 72%
    01:00 -5°C° 0 mm 5 mps 745 mmHg 71%
    02:00 -5°C° 0 mm 4 mps 745 mmHg 73%
    03:00 -5°C° 0 mm 4 mps 745 mmHg 75%
    04:00 -7°C° 0 mm 5 mps 745 mmHg 76%
    05:00 -8°C° 0 mm 5 mps 745 mmHg 77%
    06:00 -9°C° 0 mm 6 mps 744 mmHg 78%
    07:00 -9°C° 0 mm 6 mps 744 mmHg 78%
    08:00 -9°C° 0.6 mm 6 mps 744 mmHg 83%
    09:00 -10°C° 0.6 mm 6 mps 744 mmHg 88%
    10:00 -10°C° 0 mm 6 mps 744 mmHg 93%
    11:00 -10°C° 0.7 mm 6 mps 744 mmHg 92%
    12:00 -10°C° 0.7 mm 6 mps 744 mmHg 92%
    13:00 -10°C° 0.7 mm 6 mps 744 mmHg 92%
    14:00 -10°C° 0.3 mm 5 mps 744 mmHg 92%
    15:00 -10°C° 0.3 mm 5 mps 744 mmHg 92%
    16:00 -8°C° 0.3 mm 4 mps 745 mmHg 92%
    17:00 -8°C° 0.1 mm 3 mps 745 mmHg 93%
    18:00 -8°C° 0.1 mm 3 mps 746 mmHg 94%
    19:00 -8°C° 0.1 mm 3 mps 746 mmHg 94%
    20:00 -8°C° 0 mm 2 mps 747 mmHg 95%
    21:00 -9°C° 0 mm 2 mps 747 mmHg 95%
    22:00 -10°C° 0 mm 2 mps 748 mmHg 96%
    23:00 -12°C° 0 mm 2 mps 748 mmHg 96%

    Tomorrow, 18 January, Friday

    Time Temperature Precipitation Wind Pressure Humidity
    00:00 -13°C° 0 mm 2 mps 748 mmHg 96%
    01:00 -13°C° 0 mm 1 mps 748 mmHg 96%
    02:00 -15°C° 0 mm 2 mps 749 mmHg 96%
    03:00 -15°C° 0 mm 2 mps 749 mmHg 96%
    04:00 -15°C° 0 mm 2 mps 749 mmHg 96%
    05:00 -15°C° 0 mm 2 mps 749 mmHg 96%
    06:00 -16°C° 0 mm 3 mps 749 mmHg 96%
    07:00 -17°C° 0 mm 3 mps 749 mmHg 95%
    08:00 -16°C° 0 mm 3 mps 749 mmHg 93%
    09:00 -17°C° 0 mm 4 mps 748 mmHg 91%
    10:00 -16°C° 0 mm 4 mps 748 mmHg 89%
    11:00 -15°C° 0 mm 5 mps 748 mmHg 88%
    12:00 -14°C° 0 mm 5 mps 747 mmHg 86%
    13:00 -12°C° 0 mm 6 mps 747 mmHg 85%
    14:00 -12°C° 0 mm 6 mps 747 mmHg 84%
    15:00 -12°C° 0 mm 6 mps 747 mmHg 84%
    16:00 -12°C° 0 mm 6 mps 746 mmHg 84%
    17:00 -13°C° 0 mm 5 mps 747 mmHg 85%
    18:00 -13°C° 0 mm 5 mps 747 mmHg 87%
    19:00 -14°C° 0 mm 5 mps 747 mmHg 88%
    20:00 -14°C° 0 mm 5 mps 748 mmHg 89%
    21:00 -14°C° 0 mm 4 mps 748 mmHg 91%
    22:00 -14°C° 0 mm 4 mps 748 mmHg 92%
    23:00 -14°C° 0 mm 4 mps 748 mmHg 92%

    Day after tomorrow, 19 January, Saturday

    Time Temperature Precipitation Wind Pressure Humidity
    00:00 -14°C° 0 mm 4 mps 749 mmHg 93%
    01:00 -14°C° 0 mm 4 mps 749 mmHg 93%
    02:00 -14°C° 0 mm 4 mps 749 mmHg 94%
    03:00 -14°C° 0 mm 3 mps 749 mmHg 94%
    04:00 -14°C° 0 mm 3 mps 749 mmHg 95%
    05:00 -14°C° 0 mm 3 mps 749 mmHg 95%
    06:00 -13°C° 0 mm 3 mps 749 mmHg 95%
    07:00 -13°C° 0 mm 3 mps 749 mmHg 95%
    08:00 -14°C° 0 mm 4 mps 748 mmHg 94%
    09:00 -12°C° 0 mm 4 mps 748 mmHg 94%
    10:00 -13°C° 0 mm 5 mps 748 mmHg 93%
    11:00 -12°C° 0 mm 5 mps 748 mmHg 93%
    12:00 -12°C° 0 mm 5 mps 747 mmHg 93%
    13:00 -11°C° 0 mm 5 mps 747 mmHg 93%
    14:00 -11°C° 0 mm 5 mps 747 mmHg 93%
    15:00 -10°C° 0 mm 5 mps 747 mmHg 92%
    16:00 -10°C° 0 mm 5 mps 747 mmHg 92%
    17:00 -10°C° 0 mm 5 mps 747 mmHg 93%
    18:00 -10°C° 0 mm 5 mps 747 mmHg 93%
    19:00 -10°C° 0 mm 5 mps 747 mmHg 93%
    20:00 -9°C° 0 mm 4 mps 747 mmHg 93%
    21:00 -9°C° 0 mm 4 mps 747 mmHg 94%
    22:00 -8°C° 0 mm 4 mps 747 mmHg 94%
    23:00 -8°C° 0 mm 4 mps 747 mmHg 95%

    20 January, Sunday

    Time Temperature Precipitation Wind Pressure Humidity
    00:00 -7°C° 0 mm 3 mps 747 mmHg 95%
    01:00 -7°C° 0 mm 3 mps 747 mmHg 95%
    02:00 -7°C° 0.1 mm 3 mps 746 mmHg 95%
    03:00 -7°C° 0.1 mm 3 mps 746 mmHg 95%
    04:00 -8°C° 0.1 mm 3 mps 746 mmHg 96%
    05:00 -7°C° 0.2 mm 3 mps 746 mmHg 95%
    06:00 -7°C° 0.2 mm 3 mps 745 mmHg 95%
    07:00 -7°C° 0.2 mm 3 mps 745 mmHg 95%
    08:00 -8°C° 0.6 mm 4 mps 745 mmHg 95%
    09:00 -8°C° 0.6 mm 4 mps 745 mmHg 95%
    10:00 -7°C° 0.6 mm 4 mps 744 mmHg 95%
    11:00 -7°C° 0.6 mm 4 mps 744 mmHg 95%
    12:00 -7°C° 0.6 mm 4 mps 744 mmHg 95%
    13:00 -5°C° 0.6 mm 4 mps 744 mmHg 95%
    14:00 -7°C° 0.4 mm 4 mps 744 mmHg 94%
    15:00 -8°C° 0.4 mm 5 mps 745 mmHg 93%
    16:00 -10°C° 0.4 mm 6 mps 745 mmHg 91%
    17:00 -12°C° 0.1 mm 5 mps 746 mmHg 91%
    18:00 -14°C° 0.1 mm 4 mps 746 mmHg 92%
    19:00 -15°C° 0.1 mm 4 mps 747 mmHg 92%
    20:00 -16°C° 0 mm 3 mps 748 mmHg 93%
    21:00 -18°C° 0 mm 3 mps 749 mmHg 94%
    22:00 -19°C° 0 mm 2 mps 750 mmHg 96%
    23:00 -19°C° 0 mm 2 mps 750 mmHg 96%

    21 January, Monday

    Time Temperature Precipitation Wind Pressure Humidity
    00:00 -19°C° 0 mm 2 mps 751 mmHg 96%
    01:00 -19°C° 0 mm 2 mps 751 mmHg 97%
    02:00 -19°C° 0.1 mm 2 mps 752 mmHg 97%
    03:00 -18°C° 0.1 mm 2 mps 752 mmHg 97%
    04:00 -18°C° 0.1 mm 2 mps 752 mmHg 96%
    05:00 -18°C° 0 mm 2 mps 753 mmHg 96%
    06:00 -19°C° 0 mm 3 mps 753 mmHg 96%
    07:00 -19°C° 0 mm 3 mps 753 mmHg 96%
    08:00 -19°C° 0 mm 3 mps 753 mmHg 96%
    09:00 -19°C° 0 mm 4 mps 754 mmHg 95%
    10:00 -19°C° 0 mm 4 mps 754 mmHg 94%
    11:00 -19°C° 0 mm 5 mps 754 mmHg 93%
    12:00 -18°C° 0 mm 5 mps 754 mmHg 92%
    13:00 -17°C° 0 mm 6 mps 754 mmHg 91%
    14:00 -17°C° 0 mm 6 mps 754 mmHg 90%
    15:00 -17°C° 0 mm 6 mps 753 mmHg 90%
    16:00 -18°C° 0 mm 5 mps 753 mmHg 90%
    17:00 -18°C° 0 mm 5 mps 754 mmHg 90%
    18:00 -18°C° 0 mm 5 mps 754 mmHg 90%
    19:00 -18°C° 0 mm 5 mps 754 mmHg 91%
    20:00 -19°C° 0 mm 5 mps 754 mmHg 91%
    21:00 -19°C° 0 mm 5 mps 754 mmHg 91%
    22:00 -19°C° 0 mm 5 mps 754 mmHg 91%
    23:00 -19°C° 0 mm 5 mps 753 mmHg 91%

    22 January, Tuesday

    Time Temperature Precipitation Wind Pressure Humidity
    00:00 -19°C° 0 mm 5 mps 753 mmHg 90%
    01:00 -19°C° 0 mm 5 mps 753 mmHg 90%
    02:00 -18°C° 0 mm 5 mps 753 mmHg 89%
    03:00 -18°C° 0 mm 6 mps 753 mmHg 87%
    04:00 -18°C° 0 mm 6 mps 752 mmHg 86%
    05:00 -17°C° 0 mm 5 mps 752 mmHg 85%
    06:00 -17°C° 0 mm 5 mps 751 mmHg 83%
    07:00 -17°C° 0 mm 5 mps 751 mmHg 82%
    08:00 -15°C° 0 mm 5 mps 750 mmHg 80%
    09:00 -15°C° 0 mm 6 mps 750 mmHg 77%
    10:00 -14°C° 0 mm 6 mps 749 mmHg 75%
    11:00 -14°C° 0.3 mm 6 mps 748 mmHg 79%
    12:00 -12°C° 0.3 mm 6 mps 747 mmHg 82%
    13:00 -12°C° 0.3 mm 7 mps 747 mmHg 86%
    14:00 -12°C° 0.9 mm 7 mps 746 mmHg 88%
    15:00 -12°C° 0.9 mm 7 mps 745 mmHg 91%
    16:00 -12°C° 0.9 mm 7 mps 744 mmHg 93%
    17:00 -11°C° 0.9 mm 7 mps 744 mmHg 93%
    18:00 -9°C° 0.9 mm 7 mps 743 mmHg 92%
    19:00 -8°C° 0.9 mm 7 mps 742 mmHg 92%
    20:00 -8°C° 0.5 mm 7 mps 742 mmHg 89%
    21:00 -8°C° 0.5 mm 8 mps 742 mmHg 86%
    22:00 -9°C° 0.5 mm 9 mps 741 mmHg 84%
    23:00 -11°C° 0 mm 7 mps 742 mmHg 85%
    Show more